Temperature
22 21 21 21 20 20 20 20 19 19 19 19 19 18 18 18 18 18 18 18 17 17 17 17 17 17 17 17 17 17 16 16 16 16 16 15 15 15 15 15 15 15 15
22 21 21 21 20 20 20 20 19 19 19 19 18 18 18 18 18 18 18 18 17 17 17 17 17 17 17 17 17 16 16 16 16 16 16 15 15 15 15 15 15 14 14
22 21 21 20 20 20 20 19 19 19 19 19 18 18 18 18 18 18 17 17 17 17 17 17 17 17 17 17 16 16 16 16 16 15 15 15 15 15 14 14 14 14 14
21 21 20 20 20 20 20 19 19 19 19 19 19 18 18 18 17 17 17 17 17 17 17 17 17 17 17 16 16 16 16 16 16 15 15 15 15 14 14 14 14 14 14
21 20 20 20 19 19 19 19 19 19 19 19 18 18 18 18 18 17 17 17 17 17 17 17 17 17 17 16 16 16 16 16 15 15 15 15 14 14 14 14 14 13 13
20 20 20 20 19 19 19 19 19 19 19 19 18 18 18 18 17 17 17 17 17 17 17 17 17 17 16 16 16 16 16 15 15 15 15 14 14 14 14 13 13 13 13
20 20 19 19 19 19 19 19 19 19 19 18 18 18 18 18 17 17 17 17 17 17 16 16 16 16 16 16 16 16 15 15 15 15 15 14 14 14 13 13 13 13 13
19 19 19 19 19 19 18 18 18 18 18 18 18 18 17 17 17 17 17 16 16 16 16 16 16 16 16 16 16 15 15 15 15 15 14 14 14 13 13 13 13 12 12
19 18 18 18 18 18 18 18 18 18 18 18 17 17 17 17 17 17 16 16 16 16 16 16 16 16 16 15 15 15 15 15 14 14 14 14 13 13 13 12 12 12 12
18 18 18 18 17 17 17 17 17 17 17 17 17 17 17 17 17 16 16 16 16 16 16 16 15 15 15 15 15 15 14 14 14 14 14 13 13 13 12 12 12 12 12
18 18 17 17 17 17 17 17 17 17 17 17 16 16 16 16 16 16 16 15 15 15 15 15 15 15 15 15 14 14 14 14 14 13 13 13 13 12 12 12 12 11 11
17 17 17 17 16 16 16 16 16 16 16 16 16 16 16 16 15 15 15 15 15 15 15 15 15 14 14 14 14 14 13 13 13 13 13 12 12 12 12 12 11 11 11
16 16 16 16 16 16 16 16 15 15 15 15 15 15 15 15 15 14 14 14 14 14 14 14 14 13 13 13 13 13 13 13 12 12 12 12 12 12 12 11 11 11 11
15 15 15 15 15 15 15 15 15 14 14 14 14 14 14 14 14 14 14 14 14 14 13 13 13 13 13 13 12 12 12 12 12 12 12 12 12 12 11 11 11 11 11
15 15 15 15 15 14 14 14 14 14 14 14 14 14 14 14 14 14 13 13 13 13 13 13 13 12 12 12 12 12 12 11 11 11 11 11 11 11 11 11 11 11 10
14 14 14 14 14 14 14 14 14 14 14 13 13 13 13 13 13 13 13 13 13 13 12 12 12 12 12 12 11 11 11 11 11 11 11 11 11 11 11 11 10 10 10
14 14 14 14 13 13 13 13 13 13 13 13 13 13 13 13 12 12 12 12 12 12 12 11 11 11 11 11 11 11 11 11 11 10 10 11 10 10 10 10 10 10 10
13 13 13 13 13 13 13 12 12 12 12 12 12 12 12 12 12 12 12 12 11 11 11 11 11 11 11 10 10 10 10 10 10 10 10 10 10 10 10 10 10 9 9
13 13 12 12 12 12 12 12 12 12 12 12 12 12 12 11 11 11 11 11 11 11 11 10 10 10 10 10 10 10 10 10 10 10 10 10 10 9 9 9 9 9 9
12 12 12 12 12 11 11 11 11 11 11 11 11 11 11 11 11 11 11 11 10 10 10 10 10 10 10 10 10 10 10 10 9 9 9 9 9 9 9 9 9 9 8
12 12 12 11 11 11 11 11 11 10 10 10 10 10 10 10 10 10 10 10 10 10 10 10 10 10 10 9 9 9 9 9 9 9 9 9 9 9 9 9 8 8 8
11 11 11 11 11 11 10 10 10 10 10 10 10 10 10 10 10 10 10 10 10 10 9 9 9 9 9 9 9 9 9 9 9 9 9 9 8 8 8 8 8 8 8
11 11 11 11 11 10 10 10 10 10 10 10 10 10 10 10 10 10 9 9 9 9 9 9 9 9 9 8 8 8 8 8 8 8 8 8 8 8 8 8 7 7 7
11 11 11 10 10 10 10 10 10 10 10 10 9 9 10 9 9 9 9 9 9 9 9 9 9 9 8 8 8 8 8 8 8 8 8 8 8 7 7 7 7 7 7
11 10 10 10 10 10 10 10 9 9 9 9 9 9 9 9 9 9 9 9 9 9 9 9 9 8 8 8 8 8 8 8 8 7 7 7 7 7 7 7 7 7 6
10 10 10 10 10 10 10 10 9 9 9 9 9 9 9 9 9 9 9 8 8 8 8 8 8 8 8 8 8 8 8 8 7 7 7 7 7 7 7 6 6 6 6
Wind_Speed
8 8 7 7 7 6 5 6 5 4 5 5 5 5 5 5 5 5 5 4 5 5 4 5 5 4 3 3 3 3 3 3 4 2 1 1 0 0 1 1 1 1 2
8 8 7 6 6 6 6 6 5 5 5 6 5 5 5 5 5 5 6 5 6 6 5 5 5 4 4 3 3 3 3 3 3 3 1 1 1 1 1 0 1 1 1
8 7 6 5 6 6 6 5 5 6 6 5 5 5 5 5 5 5 6 6 6 6 6 6 6 5 4 3 4 3 3 3 3 3 2 1 1 1 0 0 0 1 1
6 6 5 5 5 6 6 5 5 5 5 5 5 5 5 5 5 5 5 5 5 5 5 6 6 6 6 5 4 4 3 3 3 2 2 1 1 1 1 1 0 1 1
5 5 5 5 5 5 5 6 5 5 5 5 4 4 4 4 5 5 5 5 5 5 5 5 6 6 7 6 5 5 5 4 3 3 2 2 1 1 2 1 1 0 1
5 6 5 5 5 5 6 5 5 5 5 4 5 5 5 5 6 7 6 6 6 6 5 5 4 5 6 7 7 7 7 6 5 4 3 3 3 3 2 2 1 1 1
4 3 3 3 4 4 4 3 4 4 4 4 5 5 6 7 8 8 9 6 6 6 6 5 4 4 5 5 5 5 6 7 8 6 5 5 4 5 4 3 3 2 2
5 4 4 4 4 3 3 4 4 3 4 4 4 5 6 6 8 9 9 7 6 6 7 7 6 6 6 6 5 4 4 4 5 5 5 5 4 4 5 4 3 2 0
5 5 5 4 4 4 4 4 4 3 3 3 4 5 6 6 8 9 8 5 5 6 6 6 7 6 7 8 6 5 4 3 2 4 4 3 4 5 5 4 3 2 1
4 4 4 4 4 5 5 5 4 3 4 4 4 5 5 6 7 8 8 5 5 5 4 5 7 7 7 9 7 6 6 4 3 2 2 2 2 4 6 5 4 3 2
3 3 3 3 4 5 5 4 3 3 3 3 4 4 4 5 5 6 8 6 6 6 5 5 5 7 8 9 8 6 7 5 4 4 3 2 1 2 3 3 4 4 3
1 1 2 2 3 2 3 3 3 3 3 4 4 4 3 3 4 6 8 8 7 7 7 6 5 8 8 8 7 6 7 5 3 3 3 3 3 3 2 3 4 4 3
1 1 1 2 2 2 2 3 3 3 3 4 4 5 4 3 4 5 7 8 8 6 5 6 6 8 7 6 6 7 6 5 4 4 4 4 3 3 2 2 2 2 2
2 2 2 2 2 2 2 3 3 4 4 4 5 5 5 4 3 3 3 4 5 4 4 4 5 6 5 4 4 4 4 4 5 5 4 3 2 2 2 2 2 2 2
3 3 3 3 3 3 3 3 4 5 6 6 6 6 5 6 5 6 5 4 4 4 3 2 2 3 3 3 3 3 3 4 4 4 3 3 3 3 2 2 2 3 3
4 4 4 3 3 3 3 4 4 6 7 8 9 8 6 7 6 6 6 7 7 7 5 4 4 4 5 5 5 4 4 4 4 4 4 4 4 4 3 2 2 3 3
5 5 4 4 4 4 4 3 4 4 4 6 7 8 8 7 7 6 5 5 6 7 4 5 5 5 5 5 5 5 5 5 4 5 5 4 4 4 4 3 3 3 3
5 6 5 5 5 5 5 5 5 5 5 4 4 5 7 7 6 6 5 3 2 4 4 5 5 5 5 5 5 5 5 4 4 5 5 5 5 4 4 4 4 4 4
5 5 5 5 5 5 5 5 5 5 5 4 3 3 4 5 5 5 5 4 4 5 5 5 4 5 5 5 5 4 5 5 4 5 5 5 5 4 4 4 4 5 5
4 6 6 5 5 4 4 4 5 5 5 4 5 4 3 2 2 3 3 4 4 5 5 5 5 5 5 5 5 5 5 5 5 5 5 5 5 5 5 6 5 5 5
4 5 6 5 5 5 5 5 5 5 5 5 5 5 5 5 5 4 4 4 5 5 5 5 4 5 5 4 5 5 6 5 5 5 5 5 5 5 4 4 4 5 4
4 4 4 4 4 4 5 5 4 5 5 5 4 4 6 5 5 5 5 5 5 5 5 5 5 5 5 5 5 5 5 5 5 5 5 4 4 4 4 4 4 4 4
4 4 4 4 4 4 4 4 4 4 5 5 5 4 4 5 5 5 5 5 4 4 4 5 5 4 4 5 5 5 5 5 5 5 5 5 4 4 4 4 5 5 4
3 4 4 3 3 4 4 4 4 4 5 5 4 4 5 5 5 5 5 4 4 4 4 5 5 6 7 6 5 5 6 6 5 5 6 5 5 4 4 4 4 5 5
3 3 3 3 3 3 4 4 4 4 4 4 4 4 4 4 4 4 4 4 5 5 5 6 5 6 8 8 7 7 7 7 6 6 6 5 5 5 4 4 4 4 4
2 2 2 2 2 2 3 3 3 3 3 3 3 3 4 4 4 4 4 4 4 4 5 5 6 7 8 8 9 9 8 8 8 7 6 6 5 5 5 4 5 5 5
Wind_Direction
187 192 198 203 203 200 205 211 210 213 212 213 212 213 217 220 213 208 217 214 216 217 206 203 213 204 202 204 196 193 197 198 227 253 243 265 236 222 13 24 59 59 42
188 193 202 205 198 201 212 215 206 212 216 215 213 217 224 224 214 210 217 214 214 217 212 203 211 201 205 207 199 200 203 200 205 234 247 260 240 232 253 255 67 66 43
181 186 197 207 203 208 215 215 209 214 215 213 210 219 227 225 218 217 216 214 215 216 210 207 210 199 208 208 207 210 209 202 200 209 222 228 230 196 194 271 107 23 35
162 171 186 207 218 221 218 216 214 213 213 212 210 217 220 217 219 222 217 217 219 217 213 209 207 205 210 212 211 209 199 191 192 201 220 224 225 201 177 215 267 354 341
159 176 189 196 205 229 233 227 215 213 218 213 209 213 215 216 220 217 216 216 213 215 217 217 214 208 207 205 205 203 195 193 185 196 210 213 217 207 213 206 224 307 317
176 191 193 195 198 211 225 225 218 213 213 209 211 213 216 225 227 216 211 212 209 208 215 219 217 212 208 204 204 199 194 196 197 197 207 215 222 222 211 200 192 197 247
181 186 195 197 202 216 227 227 229 221 215 216 218 217 224 227 219 215 211 206 206 210 211 209 216 216 203 204 201 200 208 210 199 193 200 213 212 209 195 197 204 210 226
176 191 201 195 199 205 209 225 232 225 222 222 225 226 232 235 216 211 206 206 209 212 210 207 207 211 207 197 188 189 206 220 216 211 211 215 211 197 196 200 202 195 202
189 204 208 200 203 206 220 231 232 223 225 224 231 228 230 239 224 211 200 207 215 220 216 210 207 210 205 185 179 186 194 216 198 186 197 204 185 169 165 151 153 165 208
207 213 210 203 209 220 228 229 223 217 227 229 236 234 233 239 229 216 202 207 214 222 223 218 209 205 191 180 185 188 198 207 182 163 163 188 183 168 168 177 180 183 190
206 194 193 204 220 222 224 221 214 216 222 234 250 258 255 253 240 221 206 212 217 218 222 224 218 195 186 184 186 197 203 187 176 168 164 167 168 176 185 191 192 187 189
176 194 218 219 236 241 216 225 225 221 231 242 250 266 265 255 241 232 219 220 218 217 223 222 212 187 186 189 193 196 178 163 163 164 171 184 196 205 210 202 192 194 198
146 216 260 269 269 251 226 232 238 233 237 248 250 257 268 263 255 242 228 223 218 223 226 210 195 186 181 188 191 180 169 171 175 183 196 207 212 212 191 174 161 158 152
202 231 240 250 271 270 251 238 239 241 242 244 246 251 257 256 251 247 235 226 221 222 223 197 181 177 178 180 179 179 182 188 190 197 203 207 191 178 177 179 175 168 154
214 229 238 240 243 260 269 255 241 243 235 233 240 239 240 250 241 223 219 220 216 212 193 180 178 178 186 190 190 193 193 189 197 205 200 196 191 187 190 184 181 171 180
222 231 235 237 241 245 258 288 284 258 250 237 234 235 247 248 239 224 219 219 210 188 174 191 199 199 201 200 199 203 205 206 206 202 199 197 194 191 189 186 183 185 190
228 236 238 237 238 243 247 255 280 293 278 258 245 239 239 241 231 225 217 208 197 174 183 203 205 207 210 206 202 204 210 209 202 200 200 198 195 191 188 190 189 190 198
244 245 243 241 239 240 244 248 249 255 270 280 276 251 236 226 218 213 195 165 191 190 205 208 209 208 209 208 205 206 205 200 199 200 199 197 195 191 189 194 197 200 203
251 251 250 248 245 242 244 250 253 252 252 259 270 267 237 218 205 202 181 193 210 219 218 217 212 209 208 207 204 202 202 200 199 198 199 197 194 191 195 201 205 202 206
256 250 250 246 244 242 241 242 245 246 248 251 254 254 236 219 224 217 206 205 211 219 219 218 216 210 208 206 202 198 198 198 198 201 202 202 199 197 201 205 208 210 213
263 260 257 252 243 239 237 235 237 241 246 250 253 247 218 221 228 226 223 219 217 219 218 216 212 207 205 202 198 196 199 204 203 203 204 206 204 203 206 206 208 211 213
259 260 255 249 245 243 241 239 239 242 244 246 252 244 218 223 230 231 230 232 230 223 217 212 213 210 205 201 199 197 202 206 205 201 202 200 201 205 205 203 205 208 208
254 259 258 250 243 240 243 244 241 241 243 243 238 235 228 229 228 228 228 230 228 223 213 208 208 209 209 206 203 201 202 206 205 196 194 195 196 200 200 202 204 205 207
249 250 251 251 247 238 240 247 248 248 248 245 241 235 229 230 231 229 227 227 222 220 213 209 209 208 206 205 201 201 205 202 195 193 192 191 192 194 197 202 207 207 208
256 249 249 250 249 244 241 245 252 254 252 247 243 238 233 228 228 229 229 225 221 220 217 213 213 210 208 207 205 203 198 193 192 188 187 190 192 195 196 201 205 208 209
269 253 256 260 257 248 239 242 251 257 257 249 240 235 232 229 227 227 224 221 219 220 220 218 214 211 208 208 207 202 195 192 189 187 186 186 189 197 200 204 206 207 208
Height
1503 1506 1508 1510 1512 1513 1514 1515 1517 1518 1520 1521 1522 1523 1523 1523 1524 1524 1525 1525 1526 1526 1527 1527 1527 1528 1528 1528 1528 1527 1527 1527 1527 1527 1526 1526 1526 1526 1525 1525 1525 1525 1524
1499 1502 1504 1506 1508 1510 1511 1512 1513 1515 1516 1517 1518 1519 1519 1520 1520 1520 1521 1522 1522 1523 1523 1524 1524 1524 1524 1525 1524 1524 1524 1524 1524 1524 1523 1523 1523 1523 1523 1523 1523 1522 1522
1495 1498 1500 1503 1505 1506 1507 1508 1509 1510 1512 1513 1514 1515 1515 1516 1516 1517 1518 1518 1518 1519 1519 1520 1520 1520 1521 1521 1521 1521 1521 1521 1521 1521 1520 1520 1520 1520 1520 1520 1520 1519 1519
1491 1494 1496 1499 1501 1503 1504 1505 1505 1506 1507 1508 1509 1510 1511 1512 1512 1513 1513 1514 1514 1515 1515 1516 1516 1516 1517 1517 1517 1517 1517 1517 1517 1517 1517 1516 1517 1517 1517 1517 1517 1517 1517
1487 1490 1492 1495 1497 1499 1500 1501 1501 1502 1503 1504 1504 1505 1507 1508 1508 1509 1509 1509 1510 1510 1511 1512 1512 1513 1513 1513 1513 1513 1514 1513 1513 1513 1513 1513 1513 1513 1513 1514 1514 1514 1513
1485 1486 1489 1491 1493 1494 1496 1497 1497 1498 1499 1499 1500 1501 1502 1503 1504 1504 1505 1505 1505 1506 1506 1506 1507 1508 1509 1509 1509 1509 1510 1510 1509 1509 1509 1510 1510 1510 1510 1510 1511 1511 1511
1482 1483 1486 1487 1488 1490 1492 1492 1492 1493 1494 1494 1495 1496 1496 1497 1498 1498 1499 1500 1500 1500 1501 1501 1502 1503 1503 1504 1504 1505 1505 1506 1506 1506 1506 1506 1507 1507 1508 1508 1508 1508 1508
1478 1479 1482 1484 1485 1486 1487 1487 1487 1488 1489 1488 1489 1490 1491 1491 1492 1493 1494 1494 1494 1495 1495 1496 1497 1497 1498 1498 1499 1500 1501 1501 1502 1501 1502 1502 1503 1504 1504 1505 1505 1505 1505
1474 1477 1479 1479 1480 1482 1482 1483 1483 1483 1484 1484 1485 1486 1486 1486 1487 1488 1489 1489 1489 1489 1490 1490 1491 1492 1493 1493 1494 1494 1495 1496 1497 1497 1498 1499 1499 1500 1500 1501 1501 1502 1501
1472 1473 1475 1475 1477 1477 1478 1478 1479 1479 1479 1480 1480 1481 1481 1481 1482 1483 1484 1484 1483 1484 1484 1485 1485 1486 1487 1488 1489 1490 1490 1491 1492 1493 1494 1495 1495 1496 1497 1497 1498 1498 1498
1469 1470 1471 1472 1473 1473 1473 1474 1474 1474 1474 1475 1476 1475 1475 1476 1477 1478 1478 1479 1479 1478 1478 1479 1480 1481 1482 1483 1484 1485 1486 1487 1488 1489 1490 1491 1491 1492 1493 1494 1494 1495 1495
1466 1467 1468 1468 1469 1470 1470 1470 1470 1470 1470 1469 1469 1469 1470 1471 1471 1472 1473 1473 1474 1473 1473 1473 1474 1475 1476 1478 1479 1480 1482 1483 1483 1484 1485 1486 1487 1488 1489 1490 1491 1491 1492
1463 1464 1465 1465 1465 1466 1465 1465 1465 1465 1465 1465 1465 1465 1465 1465 1465 1466 1466 1467 1468 1468 1467 1468 1469 1469 1470 1472 1474 1475 1477 1478 1479 1480 1481 1482 1483 1484 1485 1486 1487 1488 1489
1460 1460 1461 1461 1461 1462 1462 1462 1462 1461 1461 1460 1460 1460 1460 1460 1460 1460 1461 1461 1462 1463 1463 1463 1464 1465 1466 1467 1469 1470 1472 1473 1474 1476 1477 1478 1479 1480 1481 1482 1483 1484 1485
1457 1457 1457 1457 1457 1457 1457 1457 1457 1457 1458 1457 1456 1456 1455 1455 1455 1456 1456 1456 1457 1457 1458 1458 1459 1460 1461 1462 1464 1465 1467 1469 1470 1471 1473 1474 1475 1476 1477 1478 1479 1480 1481
1452 1452 1453 1452 1452 1452 1452 1451 1451 1452 1452 1452 1451 1451 1450 1451 1451 1451 1451 1451 1452 1452 1453 1453 1454 1454 1455 1456 1458 1460 1462 1463 1465 1467 1468 1469 1470 1471 1472 1474 1475 1476 1477
1447 1447 1447 1447 1447 1447 1447 1446 1445 1446 1446 1446 1445 1445 1445 1445 1445 1445 1446 1446 1447 1447 1447 1448 1449 1450 1451 1452 1453 1455 1456 1458 1461 1462 1463 1465 1466 1466 1468 1469 1470 1472 1473
1442 1442 1441 1441 1441 1441 1441 1441 1440 1440 1439 1439 1439 1439 1439 1440 1440 1440 1441 1441 1441 1441 1442 1442 1444 1445 1446 1447 1448 1449 1451 1453 1455 1457 1459 1460 1461 1462 1463 1465 1466 1467 1468
1437 1437 1436 1436 1436 1435 1435 1435 1435 1435 1434 1433 1433 1434 1434 1434 1434 1435 1435 1436 1436 1436 1437 1438 1439 1440 1441 1443 1444 1445 1447 1448 1450 1452 1453 1455 1456 1457 1458 1460 1462 1463 1464
1432 1432 1431 1431 1430 1430 1430 1430 1429 1429 1429 1428 1428 1428 1429 1429 1429 1430 1430 1431 1431 1432 1433 1433 1434 1435 1437 1438 1439 1440 1442 1444 1445 1447 1448 1450 1451 1453 1454 1455 1457 1458 1459
1427 1426 1426 1425 1425 1424 1424 1424 1424 1424 1424 1424 1424 1424 1425 1425 1425 1425 1426 1427 1427 1428 1428 1429 1430 1431 1432 1434 1435 1436 1437 1439 1441 1442 1444 1446 1447 1448 1449 1450 1452 1453 1454
1422 1421 1420 1420 1419 1419 1419 1419 1419 1419 1419 1419 1419 1420 1421 1421 1421 1421 1422 1422 1423 1424 1425 1426 1426 1427 1428 1430 1431 1432 1433 1435 1436 1438 1440 1441 1443 1444 1445 1446 1447 1448 1449
1418 1417 1415 1415 1415 1414 1414 1414 1414 1414 1415 1415 1415 1415 1416 1416 1416 1417 1418 1418 1419 1420 1421 1422 1422 1423 1425 1426 1427 1428 1429 1430 1432 1434 1436 1437 1438 1440 1441 1442 1442 1444 1445
1413 1412 1411 1410 1410 1409 1409 1410 1410 1410 1410 1411 1411 1411 1411 1411 1412 1412 1413 1414 1415 1415 1416 1417 1418 1419 1420 1422 1423 1425 1427 1428 1429 1431 1432 1433 1435 1436 1437 1438 1438 1439 1440
1410 1409 1408 1407 1407 1406 1406 1406 1406 1406 1407 1407 1407 1407 1407 1407 1407 1408 1409 1409 1410 1411 1412 1413 1414 1415 1416 1418 1420 1421 1423 1424 1426 1427 1428 1430 1431 1432 1433 1434 1435 1435 1436
1407 1406 1406 1405 1404 1404 1404 1403 1403 1403 1403 1403 1403 1403 1403 1403 1403 1404 1404 1405 1405 1406 1407 1408 1409 1411 1412 1414 1415 1417 1419 1420 1422 1423 1424 1426 1427 1428 1429 1430 1431 1432 1432